This is the latest recevied weather packets stored in our database for station/object IU1FIL-23. If no packets are shown the sender has not sent any weather packets the latest 1 day(s).
| Time | Temp. | Humidity | Pressure | Rain* | Wind** | Luminosity | Snow |
|---|---|---|---|---|---|---|---|
| 1777753803 | 12.78° C | 32% | 1023.9 hPa | - | - | - | - |
| 1777753199 | 12.78° C | 34% | 1023.9 hPa | - | - | - | - |
| 1777752595 | 12.78° C | 39% | 1023.9 hPa | - | - | - | - |
| 1777751991 | 12.78° C | 39% | 1023.9 hPa | - | - | - | - |
| 1777751386 | 12.78° C | 39% | 1024 hPa | - | - | - | - |
| 1777750781 | 12.22° C | 40% | 1023.9 hPa | - | - | - | - |
| 1777750176 | 12.22° C | 41% | 1023.8 hPa | - | - | - | - |
| 1777749568 | 12.22° C | 39% | 1023.8 hPa | - | - | - | - |
| 1777748963 | 12.22° C | 40% | 1023.6 hPa | - | - | - | - |
| 1777748358 | 12.22° C | 41% | 1023.6 hPa | - | - | - | - |
| 1777747754 | 12.78° C | 39% | 1023.6 hPa | - | - | - | - |
| 1777747149 | 11.67° C | 42% | 1023.5 hPa | - | - | - | - |
| 1777746544 | 11.67° C | 42% | 1023.5 hPa | - | - | - | - |
| 1777745939 | 11.67° C | 42% | 1023.5 hPa | - | - | - | - |
| 1777745335 | 12.22° C | 41% | 1023.5 hPa | - | - | - | - |
| 1777744730 | 12.22° C | 41% | 1023.6 hPa | - | - | - | - |
| 1777744125 | 12.78° C | 40% | 1023.5 hPa | - | - | - | - |
| 1777743520 | 13.33° C | 38% | 1023.5 hPa | - | - | - | - |
| 1777742916 | 13.33° C | 37% | 1023.4 hPa | - | - | - | - |
| 1777742311 | 13.89° C | 36% | 1023.5 hPa | - | - | - | - |
| 1777741706 | 14.44° C | 36% | 1023.7 hPa | - | - | - | - |
| 1777741101 | 15° C | 36% | 1023.8 hPa | - | - | - | - |
| 1777740497 | 15° C | 36% | 1023.8 hPa | - | - | - | - |
| 1777739893 | 15° C | 36% | 1023.9 hPa | - | - | - | - |
| 1777739289 | 15° C | 36% | 1024 hPa | - | - | - | - |
* Rain since midnight (hover to see other rain measurements)
** Current wind speed in m/s (hover to see current wind gust speed)